Lapse_Rate
7.2 7.1 7.2 7.2 7.3 7.3 7.5 7.4 7.3 7.0 6.9 7.0 6.9 6.7 6.5 6.5 6.4 6.3 6.2 6.1 6.1 6.1 6.1 6.2 6.2 6.2 6.3 6.4 6.5 6.6 6.7 6.7 6.9 6.9 6.7 6.5 6.5 6.5 6.4 6.4 6.2 6.3 6.0
7.3 7.3 7.4 7.4 7.8 7.8 7.7 7.4 7.5 7.1 6.8 6.8 6.7 6.6 6.3 6.2 6.1 6.0 6.0 6.0 6.0 6.0 6.0 6.0 6.1 6.2 6.4 6.5 6.6 6.7 6.7 6.8 6.7 6.5 6.5 6.6 6.6 6.5 6.4 6.4 6.3 6.3 6.0
7.2 7.3 7.5 7.7 7.9 8.2 7.8 7.8 7.7 7.2 6.9 6.9 6.7 6.6 6.4 6.2 6.0 5.9 5.8 5.8 5.8 5.9 6.0 6.1 6.2 6.4 6.4 6.5 6.5 6.6 6.5 6.5 6.4 6.4 6.3 6.3 6.5 6.4 6.4 6.5 6.4 6.4 6.4
7.5 7.7 7.6 7.6 8.1 8.1 7.9 7.8 7.4 7.1 6.8 6.8 6.7 6.6 6.4 6.2 6.0 5.9 5.9 6.0 6.0 6.1 6.1 6.2 6.3 6.4 6.5 6.5 6.4 6.4 6.3 6.3 6.4 6.4 6.4 6.6 6.6 6.7 6.8 6.3 6.1 6.2 6.2
7.7 7.7 7.7 7.6 7.8 7.9 7.8 7.5 7.3 7.0 6.7 6.6 6.6 6.5 6.3 6.3 6.1 6.1 6.1 6.1 6.1 6.1 6.2 6.4 6.5 6.5 6.4 6.2 6.1 6.1 6.3 6.5 6.6 6.6 6.6 6.6 6.5 6.5 6.6 6.8 6.4 6.1 6.2
7.4 7.6 7.6 7.5 7.7 7.7 7.7 7.4 7.2 7.0 6.5 6.6 6.6 6.4 6.2 6.2 6.1 6.0 6.0 6.1 6.1 6.2 6.3 6.3 6.2 6.1 6.0 6.0 6.1 6.2 6.5 6.5 6.4 6.3 6.5 6.4 6.1 5.9 6.0 6.2 6.7 6.9 6.9
7.2 7.6 7.6 7.6 7.6 7.7 7.7 7.8 7.5 6.9 6.5 6.4 6.4 6.2 5.9 6.0 6.0 6.0 6.1 6.0 6.0 6.0 6.0 5.9 5.9 5.9 6.1 6.2 6.4 6.5 6.4 6.2 6.1 6.0 5.8 5.5 5.4 5.6 6.1 6.6 6.9 7.3 7.0
7.8 7.8 7.8 7.6 7.7 7.8 7.8 7.7 7.3 6.7 6.4 6.5 6.4 6.1 6.1 6.0 6.0 6.0 5.8 5.9 6.0 6.0 6.1 6.2 6.4 6.5 6.5 6.5 6.5 6.3 6.1 5.8 5.7 5.5 5.1 5.1 5.9 6.6 6.4 6.5 6.6 6.8 6.4
7.9 7.9 7.8 7.8 7.8 7.9 7.7 7.4 6.8 6.4 6.4 6.4 6.3 6.4 6.3 6.1 5.9 5.9 6.0 6.2 6.3 6.3 6.3 6.5 6.5 6.5 6.5 6.5 6.4 6.1 5.8 5.5 5.4 5.1 5.0 6.1 6.5 6.3 6.5 6.5 6.2 6.0 6.0
7.4 7.7 7.8 7.8 7.6 7.4 7.2 6.9 6.5 6.4 6.5 6.6 6.6 6.5 6.3 6.1 6.1 6.5 6.7 6.6 6.4 6.4 6.6 6.5 6.5 6.5 6.5 6.5 6.1 5.9 5.6 5.4 5.1 5.0 5.8 6.2 6.3 6.3 6.3 6.1 6.0 5.7 5.6
7.2 7.6 7.7 7.6 7.5 7.3 7.0 6.7 6.4 6.5 6.6 6.8 6.8 6.6 6.3 6.5 6.5 6.8 6.6 6.3 6.3 6.4 6.4 6.4 6.3 6.5 6.5 6.3 6.0 5.6 5.3 5.1 5.0 5.6 6.0 6.2 6.3 6.4 6.3 6.0 5.9 5.9 5.4
7.4 7.6 7.8 7.9 7.9 7.5 7.2 6.6 6.3 6.3 6.5 6.6 6.5 6.6 6.4 6.4 6.7 6.7 6.5 6.4 6.3 6.4 6.4 6.3 6.5 6.5 6.5 6.1 5.7 5.4 5.2 5.2 5.9 6.1 6.1 6.3 6.5 6.5 6.4 6.5 6.1 6.0 5.9
7.9 7.8 7.9 7.9 7.7 7.4 7.0 6.5 6.2 6.2 6.4 6.5 6.4 6.3 6.1 6.5 6.5 6.6 6.6 6.4 6.3 6.4 6.3 6.4 6.5 6.4 6.2 5.9 5.5 5.5 5.6 5.9 6.1 6.1 6.5 6.9 6.8 6.8 6.7 6.5 6.3 6.1 6.1
7.5 7.7 7.8 7.8 7.8 7.6 7.0 6.4 6.2 5.9 6.3 5.7 6.1 6.2 6.1 6.3 6.6 6.7 6.6 6.2 6.0 6.0 6.2 6.2 6.4 6.4 6.1 5.7 5.8 6.0 6.1 6.3 6.4 6.8 7.2 7.3 7.0 6.7 6.6 6.2 6.2 6.3 6.0
7.4 7.6 7.8 7.7 7.5 7.2 6.8 6.5 6.1 5.8 5.7 5.7 5.4 6.1 6.3 6.3 6.2 6.5 6.1 6.0 6.0 6.2 6.3 6.3 6.4 6.0 5.9 6.0 6.3 6.4 6.3 6.5 6.8 7.2 7.4 7.2 6.9 6.8 6.6 6.2 6.3 6.1 6.0
6.9 7.4 7.6 7.4 7.2 6.6 6.5 6.1 5.7 5.9 6.0 5.6 5.9 6.0 6.1 6.2 6.1 6.0 6.1 6.0 6.1 6.1 6.3 6.3 6.1 5.9 6.1 6.3 6.5 6.5 6.6 6.9 7.1 7.1 7.3 7.0 6.8 6.8 6.7 6.3 6.4 6.2 6.2
6.8 7.3 7.3 6.8 6.7 6.4 6.4 6.3 6.2 6.1 5.6 5.9 5.9 5.9 6.0 5.9 6.1 6.0 6.2 6.0 6.0 6.3 6.4 6.1 5.9 6.1 6.2 6.4 6.5 6.6 6.8 7.0 7.1 7.3 7.2 6.9 6.6 6.6 6.6 6.6 6.6 6.7 6.7
6.4 6.6 6.8 6.8 6.7 6.1 5.9 6.1 6.3 6.3 6.2 6.1 6.0 5.9 5.9 5.8 6.0 6.1 6.1 6.1 6.2 6.3 6.1 6.1 6.1 6.3 6.2 6.4 6.4 6.6 6.6 6.7 6.8 7.0 6.9 6.8 6.6 6.4 6.4 6.4 6.7 6.7 6.8
6.3 6.0 6.1 6.0 6.0 5.7 5.9 5.9 6.1 6.5 6.5 6.4 6.0 6.0 6.0 5.9 6.0 6.2 6.0 6.1 6.2 6.1 6.3 6.3 6.3 6.3 6.3 6.3 6.4 6.5 6.5 6.6 6.9 6.8 6.7 6.5 6.4 6.3 6.2 6.2 6.4 6.6 6.6
6.3 6.1 6.3 6.0 6.0 5.8 6.1 6.2 6.1 6.3 6.4 5.9 6.1 6.1 6.2 6.2 6.2 6.0 5.9 6.1 6.3 6.3 6.3 6.3 6.2 6.3 6.3 6.4 6.4 6.4 6.5 6.8 6.8 6.6 6.5 6.5 6.4 6.4 6.4 6.4 6.4 6.5 6.3
6.5 6.3 6.4 6.5 6.6 6.5 6.7 6.7 6.7 6.5 6.5 6.2 6.3 6.2 6.4 6.2 6.3 6.2 6.2 6.1 6.1 6.4 6.4 6.2 6.2 6.2 6.4 6.5 6.6 6.5 6.7 6.7 6.8 6.6 6.4 6.3 6.2 6.3 6.3 6.3 6.3 6.2 6.3
7.5 7.3 7.4 7.4 7.1 6.8 7.0 6.8 7.0 6.8 6.5 6.7 6.3 6.5 6.7 6.7 6.4 6.3 6.2 6.2 6.2 6.2 6.2 6.2 6.3 6.3 6.5 6.5 6.5 6.6 6.6 6.7 6.6 6.6 6.3 6.2 6.1 6.1 6.1 6.1 6.1 6.2 6.3
7.8 7.9 7.8 7.8 7.8 7.7 7.5 7.4 7.5 7.2 7.1 6.5 6.3 6.6 6.7 6.5 6.4 6.4 6.4 6.3 6.1 6.1 6.2 6.4 6.4 6.5 6.6 6.4 6.5 6.6 6.6 6.6 6.5 6.4 6.3 6.2 6.1 6.1 6.0 6.0 6.0 6.0 5.9
7.8 7.8 7.7 7.8 7.7 7.7 7.6 7.6 7.3 7.1 6.6 6.8 6.7 6.9 6.7 6.5 6.4 6.4 6.3 6.1 6.1 6.1 6.2 6.3 6.5 6.6 6.6 6.4 6.6 6.6 6.5 6.5 6.4 6.3 6.2 6.1 6.0 5.8 5.7 5.7 5.7 5.6 5.5
7.7 7.7 7.9 7.8 7.7 7.7 7.5 7.5 7.4 7.3 7.2 7.0 6.7 6.7 6.7 6.7 6.7 6.8 6.4 6.4 6.3 6.2 6.3 6.4 6.5 6.4 6.5 6.3 6.5 6.6 6.5 6.5 6.4 6.2 6.1 6.0 5.8 5.8 5.8 5.8 5.7 5.6 5.5
7.6 7.6 7.7 7.9 7.7 7.5 7.3 7.5 7.3 7.3 7.0 7.1 6.9 6.9 6.9 6.8 6.8 6.9 6.6 6.3 6.2 6.2 6.4 6.4 6.4 6.2 6.2 6.2 6.4 6.4 6.4 6.4 6.2 6.1 6.0 5.8 5.8 5.8 5.7 5.6 5.5 5.3 5.2
Wind_Speed
13 12 12 11 11 10 10 10 10 11 9 7 6 5 5 5 6 10 12 12 12 12 11 9 10 9 7 7 8 6 8 6 10 6 6 4 2 5 6 7 7 11 13
15 16 14 13 13 12 10 10 10 11 8 5 4 3 5 6 7 9 12 12 13 13 12 11 9 10 7 9 10 9 6 5 8 5 4 4 1 5 5 5 7 10 12
22 19 18 16 13 13 12 11 10 10 8 7 7 7 7 5 4 5 6 11 12 12 12 12 11 11 9 6 7 7 8 6 6 8 4 3 3 9 2 4 6 8 8
21 20 20 18 15 12 11 11 9 10 8 10 7 8 3 4 3 5 5 8 11 12 12 12 10 9 7 6 6 6 7 7 7 5 6 4 3 3 5 5 8 9 11
23 24 23 21 17 14 11 11 10 9 8 8 7 5 7 7 5 5 7 8 10 12 10 10 9 8 7 8 9 9 9 7 5 4 3 4 4 2 3 5 7 11 8
20 19 19 19 16 14 13 12 12 10 9 9 9 10 11 9 7 6 6 5 5 6 8 8 9 10 9 9 9 10 11 8 6 5 5 4 3 4 3 4 8 10 7
20 21 23 21 19 17 15 13 13 12 11 11 11 10 10 9 9 7 5 6 5 4 6 7 8 9 11 12 12 9 9 7 6 7 5 4 4 5 4 5 7 5 7
19 21 22 20 19 19 16 15 14 14 13 12 12 11 10 7 6 7 5 5 5 5 7 8 9 10 11 11 10 8 6 7 7 9 7 4 5 5 5 4 7 7 4
17 19 20 20 20 19 18 16 16 14 14 13 11 11 10 10 8 8 7 4 5 6 8 9 10 11 11 11 10 7 8 6 7 6 6 5 4 5 5 5 5 5 4
15 17 18 19 18 18 16 15 15 15 14 14 12 11 11 10 9 8 8 7 7 8 8 8 10 10 10 11 10 7 8 7 6 5 7 6 6 6 6 5 5 4 5
14 16 16 16 18 18 17 15 14 15 14 14 13 13 11 11 9 8 7 7 8 8 7 8 9 8 8 10 8 8 7 8 8 7 8 8 8 6 6 6 6 6 6
16 17 19 20 20 20 18 17 15 15 15 14 14 13 12 11 10 9 8 8 8 9 9 9 9 8 9 9 9 9 8 9 9 8 9 10 6 8 8 6 8 7 6
13 14 17 18 18 17 17 17 16 16 14 14 14 13 12 12 11 9 8 7 8 8 10 10 9 9 9 9 9 9 8 8 8 8 9 10 10 8 7 8 7 7 6
14 15 16 16 17 17 17 17 16 15 15 15 15 14 13 11 10 10 9 8 8 8 8 9 9 10 10 9 9 7 6 7 7 8 9 10 11 10 9 9 9 7 6
13 14 15 15 16 17 17 16 15 16 16 15 14 14 12 11 11 10 9 8 8 8 9 9 10 11 9 7 7 7 5 5 7 7 9 11 15 17 17 9 10 9 7
13 14 16 18 18 17 15 14 15 16 15 14 14 13 13 12 11 10 10 9 8 8 9 9 10 11 8 13 13 7 7 7 6 7 9 9 10 13 17 17 21 18 10
13 15 16 15 13 13 13 15 14 14 14 14 13 12 12 12 10 10 10 9 8 9 10 11 10 11 10 14 14 11 9 9 9 10 9 8 9 10 10 13 15 19 20
11 13 11 10 11 12 11 12 13 13 13 13 13 13 13 11 11 10 10 8 7 9 10 11 10 11 8 13 14 12 11 10 10 11 11 10 10 12 8 9 10 11 15
9 10 11 12 13 15 15 16 14 15 14 14 13 13 13 12 12 10 10 9 9 9 9 10 11 11 10 12 13 11 9 9 10 11 14 13 10 15 13 9 9 9 9
7 6 11 13 15 15 16 15 14 15 13 13 14 14 14 12 11 12 10 7 8 9 8 9 8 12 10 13 12 9 6 8 8 9 12 16 15 15 15 9 7 8 8
9 8 13 14 16 18 18 16 16 15 12 14 15 14 13 13 13 12 10 9 9 8 9 9 7 8 9 12 12 10 6 6 6 6 6 9 14 15 16 15 9 8 6
9 6 6 7 10 13 15 16 16 14 14 14 14 14 15 12 12 13 10 10 9 9 9 10 7 4 7 14 14 11 12 11 7 6 5 9 14 15 15 15 15 13 9
5 6 7 9 8 10 11 14 13 16 16 16 13 14 15 13 13 13 11 8 8 8 9 8 8 6 5 9 15 14 14 13 8 8 11 12 12 12 15 15 14 11 7
3 6 8 8 8 8 9 12 14 15 15 16 15 15 14 14 13 9 8 8 7 7 7 8 7 7 6 6 8 10 12 13 11 11 8 10 11 11 8 8 10 10 8
3 6 8 9 9 10 12 12 14 16 15 15 14 14 11 12 11 9 8 8 7 7 8 7 8 8 7 5 9 9 6 7 9 9 6 4 3 4 4 5 6 6 6
5 5 8 10 11 11 12 11 12 14 16 15 12 11 10 10 10 9 8 8 10 10 11 13 9 5 11 16 15 14 14 13 11 3 4 4 4 4 4 4 5 5 6
Wind_Direction
187 176 169 163 158 154 150 148 153 153 146 143 133 116 106 95 83 71 63 60 59 56 54 55 48 43 41 34 28 21 16 17 358 339 339 331 42 53 46 50 51 44 41
192 185 176 171 174 162 155 157 164 168 164 159 124 120 122 91 81 74 62 56 55 51 52 49 46 40 40 35 31 26 19 27 23 7 317 354 318 25 34 48 50 43 32
197 185 181 181 174 168 166 165 164 170 172 148 125 114 110 107 85 69 63 53 55 53 52 51 47 45 42 40 38 32 30 24 30 42 16 349 339 338 32 28 30 25 23
198 188 184 181 180 175 161 155 153 155 159 158 156 158 142 131 109 96 85 74 61 58 54 53 52 53 52 46 46 44 44 34 32 16 12 2 325 318 305 313 329 0 351
192 187 184 178 177 164 161 149 142 141 150 154 152 140 118 114 123 115 101 79 66 58 55 56 59 56 55 55 50 47 43 45 47 40 345 341 316 25 327 310 332 315 326
196 188 179 169 169 162 158 151 147 139 136 135 133 130 133 137 134 122 103 87 78 73 62 67 69 63 60 55 53 45 43 38 40 25 27 15 359 343 330 304 317 307 322
188 184 179 174 167 164 159 153 150 143 140 133 130 133 132 132 128 123 114 113 100 82 65 69 64 56 55 57 54 44 44 39 42 34 27 22 24 347 321 310 318 308 313
189 188 182 173 167 164 161 156 154 148 147 142 135 133 134 134 126 124 125 104 96 88 76 72 70 64 59 63 61 50 43 36 39 34 30 23 19 1 356 341 323 311 284
189 186 181 173 166 165 164 160 158 153 149 144 138 136 136 132 128 127 121 104 96 90 77 70 71 64 61 58 61 54 43 33 36 33 33 25 14 7 1 353 325 314 314
185 183 180 174 168 165 162 161 161 156 150 147 143 140 136 132 134 128 117 108 102 99 94 88 80 73 68 65 65 61 46 43 37 29 30 24 20 13 11 354 339 336 311
191 181 176 172 165 161 162 161 161 154 155 152 145 142 139 140 132 126 122 112 108 105 98 97 88 76 72 67 72 71 60 52 46 35 34 27 26 19 12 1 355 348 350
185 181 177 170 170 165 163 164 163 162 162 152 148 145 145 141 136 136 130 128 115 108 108 105 90 81 73 71 70 66 55 44 41 38 39 30 25 27 21 10 358 356 3
183 179 174 177 173 165 165 166 165 164 156 154 150 149 146 148 145 140 126 119 116 114 110 102 94 86 81 76 70 62 55 53 42 42 43 36 29 29 24 20 7 6 4
185 183 185 183 175 169 168 167 167 159 157 157 157 153 155 148 145 136 127 122 116 116 116 106 98 89 80 75 72 70 66 60 54 49 49 44 38 31 28 29 18 11 11
191 189 189 187 180 176 172 170 166 160 160 161 159 155 146 148 140 132 127 121 123 126 117 115 95 84 78 71 81 76 73 74 66 59 56 50 49 44 41 36 33 26 24
214 207 192 185 189 183 175 171 168 162 158 152 154 150 148 145 144 137 126 123 129 122 114 104 94 87 81 85 82 83 81 74 59 64 60 61 51 56 50 46 47 45 36
214 212 203 196 177 187 174 166 169 155 154 147 143 147 146 146 144 136 135 134 133 126 116 109 103 100 98 93 93 92 84 77 70 62 57 57 53 56 57 59 52 46 47
214 213 197 186 168 162 174 154 155 157 151 142 143 150 150 144 138 138 125 121 124 118 117 110 111 103 97 107 102 99 94 87 77 71 71 64 53 51 60 65 61 52 41
207 219 196 178 163 165 168 157 158 155 151 153 148 153 151 146 141 134 133 138 133 122 112 118 118 113 115 118 114 111 103 92 82 75 76 73 65 58 62 67 67 60 47
288 240 180 170 165 166 161 157 156 154 164 153 148 149 144 138 136 136 133 128 122 117 117 112 107 112 115 120 123 120 116 102 90 77 69 71 71 66 64 68 71 67 40
302 267 187 180 170 160 158 157 156 162 154 144 145 145 142 141 135 132 129 130 126 127 125 116 106 107 125 117 115 113 110 110 101 90 75 70 69 67 65 66 63 61 47
25 42 113 137 151 151 153 154 156 140 136 134 143 139 140 141 140 135 135 133 131 137 137 124 115 103 124 120 119 112 107 107 106 97 82 75 73 70 67 64 62 58 59
69 73 106 118 132 151 153 148 138 136 135 137 141 138 134 140 140 140 139 139 158 157 148 139 135 124 122 131 127 124 113 106 104 104 99 92 88 76 68 61 57 53 51
80 111 114 114 124 135 136 127 133 132 136 139 144 141 144 144 146 144 147 155 167 166 159 150 149 139 131 131 134 128 121 108 98 104 95 97 90 80 79 63 57 54 48
138 144 139 136 130 123 126 135 139 140 138 140 146 147 148 151 150 152 162 165 171 169 158 157 150 150 157 165 157 148 140 130 125 124 129 128 109 89 75 69 57 52 47
143 143 141 142 137 137 137 137 143 144 143 144 147 152 155 159 156 155 156 158 158 157 148 148 145 149 142 146 141 136 132 137 147 144 135 109 94 84 76 67 65 55 49